Powrót do katalogu

USA 383

AktywnyNawigacjaVLEO
NORAD 60166·PAYLOAD·🇺🇸 United States

Wystrzelony Jun 29, 2024 z Vandenberg Space Force Base

Loading…

Następne Przeloty (najbliższe 24 godziny)

TLE

NieaktualneSource: Mike McCants

Epoka: Aug 31, 2026, 22:57 UTC

1 60166U 24121J   26243.95674694 0.00000000  00000-0  00000-0 0    09
2 60166  70.0190 196.8885 0002000 265.1361  94.8639 14.96714403    07

Śledź USA 383 w czasie rzeczywistym z AllMySat

Download on the App Store